• In Belarus
  • List of Countries
  • For 7 days
  • Water Temperature
  • Satellite Maps
  • Weather Map
  • Weather Widgets
  • user-avatar
    Login

    Hourly Weather Nevinnomyssk

    Today, 22 October, Monday

    Time Temperature Precipitation Wind Pressure Humidity
    00:00 +14°C° 0 mm 2 mps 707 mmHg 77%
    01:00 +14°C° 0 mm 2 mps 707 mmHg 78%
    02:00 +14°C° 0 mm 2 mps 707 mmHg 79%
    03:00 +14°C° 0 mm 2 mps 706 mmHg 80%
    04:00 +13°C° 0 mm 2 mps 706 mmHg 81%
    05:00 +13°C° 0 mm 2 mps 706 mmHg 82%
    06:00 +13°C° 0 mm 2 mps 707 mmHg 83%
    07:00 +14°C° 0.1 mm 2 mps 707 mmHg 80%
    08:00 +15°C° 0.1 mm 1 mps 707 mmHg 77%
    09:00 +16°C° 0 mm 1 mps 708 mmHg 72%
    10:00 +16°C° 0.1 mm 1 mps 708 mmHg 71%
    11:00 +17°C° 0.1 mm 2 mps 708 mmHg 70%
    12:00 +18°C° 0.1 mm 2 mps 708 mmHg 68%
    13:00 +17°C° 0.3 mm 2 mps 708 mmHg 72%
    14:00 +17°C° 0.3 mm 2 mps 708 mmHg 76%
    15:00 +16°C° 0.3 mm 2 mps 709 mmHg 80%
    16:00 +16°C° 0.7 mm 2 mps 709 mmHg 84%
    17:00 +15°C° 0.7 mm 1 mps 709 mmHg 88%
    18:00 +14°C° 0.7 mm 1 mps 709 mmHg 93%
    19:00 +14°C° 0.1 mm 1 mps 709 mmHg 93%
    20:00 +14°C° 0.1 mm 1 mps 709 mmHg 94%
    21:00 +13°C° 0.1 mm 1 mps 709 mmHg 94%
    22:00 +13°C° 0 mm 1 mps 708 mmHg 94%
    23:00 +12°C° 0 mm 1 mps 708 mmHg 93%

    Tomorrow, 23 October, Tuesday

    Time Temperature Precipitation Wind Pressure Humidity
    00:00 +12°C° 0 mm 1 mps 708 mmHg 92%
    01:00 +12°C° 0 mm 1 mps 708 mmHg 92%
    02:00 +12°C° 0 mm 1 mps 708 mmHg 91%
    03:00 +11°C° 0 mm 1 mps 708 mmHg 91%
    04:00 +11°C° 0 mm 1 mps 708 mmHg 91%
    05:00 +11°C° 0 mm 1 mps 708 mmHg 91%
    06:00 +11°C° 0 mm 1 mps 708 mmHg 91%
    07:00 +12°C° 0 mm 1 mps 708 mmHg 87%
    08:00 +13°C° 0 mm 1 mps 708 mmHg 83%
    09:00 +14°C° 0 mm 1 mps 709 mmHg 79%
    10:00 +15°C° 0 mm 1 mps 708 mmHg 75%
    11:00 +16°C° 0 mm 1 mps 708 mmHg 71%
    12:00 +17°C° 0 mm 2 mps 708 mmHg 68%
    13:00 +17°C° 0.2 mm 2 mps 708 mmHg 68%
    14:00 +17°C° 0.2 mm 2 mps 707 mmHg 69%
    15:00 +17°C° 0.2 mm 3 mps 707 mmHg 70%
    16:00 +16°C° 0.4 mm 2 mps 707 mmHg 75%
    17:00 +15°C° 0.4 mm 2 mps 707 mmHg 80%
    18:00 +14°C° 0.4 mm 1 mps 707 mmHg 85%
    19:00 +13°C° 0.1 mm 1 mps 706 mmHg 86%
    20:00 +13°C° 0.1 mm 1 mps 706 mmHg 87%
    21:00 +13°C° 0.1 mm 1 mps 706 mmHg 89%
    22:00 +12°C° 0.4 mm 1 mps 706 mmHg 90%
    23:00 +12°C° 0.4 mm 1 mps 705 mmHg 90%

    Day after tomorrow, 24 October, Wednesday

    Time Temperature Precipitation Wind Pressure Humidity
    00:00 +12°C° 0.4 mm 1 mps 705 mmHg 91%
    01:00 +11°C° 0.1 mm 1 mps 705 mmHg 91%
    02:00 +11°C° 0.1 mm 1 mps 704 mmHg 92%
    03:00 +11°C° 0.1 mm 1 mps 704 mmHg 92%
    04:00 +11°C° 0 mm 1 mps 703 mmHg 92%
    05:00 +11°C° 0 mm 1 mps 703 mmHg 92%
    06:00 +11°C° 0 mm 1 mps 703 mmHg 91%
    07:00 +12°C° 0.4 mm 1 mps 702 mmHg 89%
    08:00 +13°C° 0.4 mm 1 mps 702 mmHg 87%
    09:00 +13°C° 0.4 mm 1 mps 702 mmHg 84%
    10:00 +14°C° 0.7 mm 2 mps 701 mmHg 82%
    11:00 +15°C° 0.7 mm 2 mps 701 mmHg 79%
    12:00 +15°C° 0.7 mm 2 mps 700 mmHg 77%
    13:00 +16°C° 0.2 mm 3 mps 700 mmHg 74%
    14:00 +16°C° 0.2 mm 3 mps 699 mmHg 71%
    15:00 +17°C° 0.2 mm 3 mps 698 mmHg 68%
    16:00 +16°C° 0.2 mm 3 mps 698 mmHg 72%
    17:00 +14°C° 0.2 mm 3 mps 697 mmHg 77%
    18:00 +14°C° 0.2 mm 2 mps 697 mmHg 82%
    19:00 +14°C° 0.5 mm 2 mps 697 mmHg 83%
    20:00 +13°C° 0.5 mm 2 mps 696 mmHg 84%
    21:00 +13°C° 0.5 mm 1 mps 696 mmHg 85%
    22:00 +13°C° 1 mm 1 mps 695 mmHg 87%
    23:00 +13°C° 1 mm 1 mps 695 mmHg 90%

    25 October, Thursday

    Time Temperature Precipitation Wind Pressure Humidity
    00:00 +12°C° 1 mm 1 mps 695 mmHg 92%
    01:00 +12°C° 0.9 mm 1 mps 694 mmHg 92%
    02:00 +12°C° 0.9 mm 1 mps 694 mmHg 93%
    03:00 +12°C° 0.9 mm 1 mps 694 mmHg 93%
    04:00 +12°C° 0.6 mm 1 mps 693 mmHg 94%
    05:00 +12°C° 0.6 mm 1 mps 693 mmHg 94%
    06:00 +12°C° 0.6 mm 2 mps 693 mmHg 94%
    07:00 +10°C° 2.8 mm 2 mps 693 mmHg 94%
    08:00 +10°C° 2.8 mm 2 mps 693 mmHg 94%
    09:00 +10°C° 2.8 mm 2 mps 694 mmHg 94%
    10:00 +9°C° 3.1 mm 3 mps 694 mmHg 93%
    11:00 +7°C° 3.1 mm 4 mps 694 mmHg 92%
    12:00 +4°C° 3.1 mm 6 mps 694 mmHg 91%
    13:00 +5°C° 2.1 mm 5 mps 695 mmHg 90%
    14:00 +5°C° 2.1 mm 4 mps 695 mmHg 88%
    15:00 +4°C° 2.1 mm 4 mps 695 mmHg 86%
    16:00 +4°C° 1 mm 4 mps 696 mmHg 85%
    17:00 +4°C° 1 mm 3 mps 697 mmHg 85%
    18:00 +4°C° 1 mm 3 mps 697 mmHg 84%
    19:00 +4°C° 0.2 mm 3 mps 698 mmHg 84%
    20:00 +5°C° 0.2 mm 2 mps 698 mmHg 85%
    21:00 +5°C° 0.2 mm 2 mps 698 mmHg 85%
    22:00 +5°C° 0 mm 2 mps 698 mmHg 85%
    23:00 +5°C° 0 mm 2 mps 698 mmHg 85%

    26 October, Friday

    Time Temperature Precipitation Wind Pressure Humidity
    00:00 +5°C° 0 mm 2 mps 699 mmHg 85%
    01:00 +5°C° 0 mm 2 mps 699 mmHg 85%
    02:00 +4°C° 0 mm 2 mps 699 mmHg 84%
    03:00 +4°C° 0 mm 2 mps 699 mmHg 84%
    04:00 +4°C° 0 mm 2 mps 699 mmHg 84%
    05:00 +4°C° 0 mm 2 mps 699 mmHg 83%
    06:00 +4°C° 0 mm 2 mps 699 mmHg 82%
    07:00 +5°C° 0 mm 2 mps 700 mmHg 80%
    08:00 +6°C° 0 mm 2 mps 700 mmHg 77%
    09:00 +7°C° 0 mm 2 mps 700 mmHg 74%
    10:00 +8°C° 0 mm 2 mps 700 mmHg 70%
    11:00 +9°C° 0 mm 2 mps 700 mmHg 67%
    12:00 +10°C° 0 mm 3 mps 700 mmHg 63%
    13:00 +9°C° 0.9 mm 3 mps 700 mmHg 69%
    14:00 +8°C° 0.9 mm 3 mps 699 mmHg 74%
    15:00 +8°C° 0.9 mm 3 mps 699 mmHg 79%
    16:00 +7°C° 1.2 mm 3 mps 700 mmHg 82%
    17:00 +6°C° 1.2 mm 4 mps 701 mmHg 85%
    18:00 +5°C° 1.2 mm 4 mps 701 mmHg 89%
    19:00 +5°C° 0.4 mm 5 mps 702 mmHg 88%
    20:00 +4°C° 0.4 mm 6 mps 703 mmHg 88%
    21:00 +3°C° 0.4 mm 6 mps 705 mmHg 88%
    22:00 +3°C° 0.2 mm 6 mps 705 mmHg 87%
    23:00 +2°C° 0.2 mm 6 mps 706 mmHg 86%

    27 October, Saturday

    Time Temperature Precipitation Wind Pressure Humidity
    00:00 +2°C° 0.2 mm 5 mps 707 mmHg 85%
    01:00 +1°C° 0 mm 5 mps 708 mmHg 84%
    02:00 +1°C° 0 mm 5 mps 709 mmHg 84%
    03:00 +1°C° 0 mm 4 mps 710 mmHg 84%
    04:00 +1°C° 0 mm 4 mps 711 mmHg 84%
    05:00 +1°C° 0 mm 3 mps 711 mmHg 83%
    06:00 +1°C° 0 mm 3 mps 712 mmHg 83%
    07:00 +2°C° 0 mm 3 mps 712 mmHg 78%
    08:00 +3°C° 0 mm 3 mps 713 mmHg 73%
    09:00 +4°C° 0 mm 3 mps 713 mmHg 68%
    10:00 +7°C° 0 mm 3 mps 714 mmHg 65%
    11:00 +7°C° 0 mm 4 mps 714 mmHg 62%
    12:00 +8°C° 0 mm 4 mps 714 mmHg 59%
    13:00 +10°C° 0 mm 4 mps 714 mmHg 59%
    14:00 +10°C° 0 mm 4 mps 714 mmHg 59%
    15:00 +10°C° 0 mm 3 mps 714 mmHg 59%
    16:00 +9°C° 0 mm 2 mps 714 mmHg 64%
    17:00 +8°C° 0 mm 2 mps 714 mmHg 68%
    18:00 +7°C° 0 mm 1 mps 714 mmHg 73%
    19:00 +7°C° 0 mm 1 mps 714 mmHg 75%
    20:00 +5°C° 0 mm 2 mps 714 mmHg 76%
    21:00 +5°C° 0 mm 2 mps 714 mmHg 77%
    22:00 +5°C° 0 mm 2 mps 714 mmHg 77%
    23:00 +4°C° 0 mm 2 mps 714 mmHg 77%

    28 October, Sunday

    Time Temperature Precipitation Wind Pressure Humidity
    00:00 +4°C° 0 mm 2 mps 714 mmHg 77%
    01:00 +4°C° 0 mm 2 mps 714 mmHg 76%
    02:00 +4°C° 0 mm 2 mps 714 mmHg 74%
    03:00 +4°C° 0 mm 2 mps 714 mmHg 73%
    04:00 +4°C° 0 mm 2 mps 714 mmHg 71%
    05:00 +4°C° 0 mm 2 mps 714 mmHg 70%
    06:00 +4°C° 0 mm 2 mps 714 mmHg 68%
    07:00 +6°C° 0 mm 2 mps 714 mmHg 64%
    08:00 +7°C° 0 mm 2 mps 715 mmHg 59%
    09:00 +9°C° 0 mm 2 mps 715 mmHg 54%
    10:00 +12°C° 0 mm 2 mps 715 mmHg 49%
    11:00 +14°C° 0 mm 2 mps 715 mmHg 43%
    12:00 +17°C° 0 mm 2 mps 715 mmHg 38%
    13:00 +17°C° 0 mm 2 mps 715 mmHg 39%
    14:00 +17°C° 0 mm 2 mps 715 mmHg 40%
    15:00 +17°C° 0 mm 2 mps 715 mmHg 41%
    16:00 +15°C° 0 mm 2 mps 714 mmHg 47%
    17:00 +13°C° 0 mm 2 mps 714 mmHg 53%
    18:00 +10°C° 0 mm 2 mps 714 mmHg 58%
    19:00 +10°C° 0 mm 2 mps 714 mmHg 59%
    20:00 +9°C° 0 mm 2 mps 714 mmHg 60%
    21:00 +9°C° 0 mm 2 mps 714 mmHg 61%
    22:00 +9°C° 0 mm 2 mps 713 mmHg 59%
    23:00 +9°C° 0 mm 2 mps 713 mmHg 58%
    Show more